Flag for U.S.A. Weather past 2 weeks in Fremont, California, U.S.A.

Now
75 °F

Sunny.


Feels Like: 78 °F
Forecast: 62 / 74 °F
Wind: 12 mph from Northwest

Location: Moffett Field

Current Time: Jul 22, 2014 at 6:45:45 PM

Latest Report: Jul 22, 2014 at 5:56 PM


Visibility: 10 mi

Pressure: 30.05 "Hg

Humidity: 54%

Dew point: 57 °F

Location of FremontLocation

Historic Weather in Fremont — Graph

°F

Fremont temperature yesterday

Maximum temperature yesterday: 77 °F (at 3:56 PM)
Minimum temperature yesterday: 65 °F (at 10:56 PM)
Average temperature yesterday: 70 °F

Past Weeks' High & Low Weather Summary

 TemperatureHumidityPressure
High81 °F (Jul 14, 12:56 PM)87% (Jul 8, 3:56 AM)30.11 "Hg (Jul 8, 3:56 AM)
Low59 °F (Jul 13, 4:56 AM)48% (Jul 17, 4:56 PM)29.84 "Hg (Jul 7, 6:56 PM)
Average68 °F71%29.97 "Hg
* Reported Jul 7 4:56 PM — Jul 22 4:56 PM, Fremont, Weather by CustomWeather, © 2014

Note: Actual official high and low records may vary slightly from our data, if they occured in-between our weather recording intervals... More about our weather records

Advertising

Fremont weather history for previous 24 hours

 ConditionsComfort  
Time TempWeatherWind HumidityBarometerVisibility
4:56 PM
Jul 22
76 °FSunny.14 mph50%30.05 "Hg10 mi
9:56 AM68 °FPartly sunny.No wind65%30.09 "Hg10 mi
8:56 AM67 °FPartly sunny.No wind68%30.09 "Hg10 mi
7:56 AM65 °FOvercast.5 mph73%30.09 "Hg10 mi
6:56 AM64 °FOvercast.No wind73%30.07 "Hg10 mi
5:56 AM64 °FOvercast.3 mph73%30.06 "Hg10 mi
4:56 AM64 °FOvercast.5 mph75%30.06 "Hg10 mi
3:56 AM64 °FOvercast.5 mph73%30.05 "Hg10 mi
2:56 AM65 °FOvercast.5 mph78%30.06 "Hg10 mi
1:56 AM65 °FOvercast.6 mph78%30.06 "Hg10 mi
12:56 AM65 °FPassing clouds.5 mph78%30.06 "Hg10 mi
11:56 PM
Jul 21
65 °FPassing clouds.7 mph76%30.05 "Hg10 mi
10:56 PM65 °FClear.12 mph78%30.06 "Hg10 mi
9:56 PM66 °FClear.15 mph75%30.05 "Hg10 mi
8:56 PM69 °FSunny.14 mph63%30.03 "Hg10 mi
7:56 PM71 °FSunny.10 mph55%30.02 "Hg10 mi
6:56 PM75 °FSunny.9 mph50%30.01 "Hg10 mi
Weather by CustomWeather, © 2014

See weather overviewHow to use our weather pages